Year,Month,Day,Hour,Minute,Value (Times are PST for temperature in C)
2015,06,28,00,00,24.40
2015,06,28,00,01,24.40
2015,06,28,00,02,24.40
2015,06,28,00,03,24.30
2015,06,28,00,04,24.30
2015,06,28,00,05,24.30
2015,06,28,00,06,24.30
2015,06,28,00,07,24.30
2015,06,28,00,08,24.20
2015,06,28,00,09,24.20
2015,06,28,00,10,24.20
2015,06,28,00,11,24.20
2015,06,28,00,12,24.10
2015,06,28,00,13,24.10
2015,06,28,00,14,24.10
2015,06,28,00,15,24.00
2015,06,28,00,16,24.00
2015,06,28,00,17,23.90
2015,06,28,00,18,23.90
2015,06,28,00,19,23.90
2015,06,28,00,20,23.80
2015,06,28,00,21,23.80
2015,06,28,00,22,23.80
2015,06,28,00,23,23.70
2015,06,28,00,24,23.70
2015,06,28,00,25,23.60
2015,06,28,00,26,23.60
2015,06,28,00,27,23.60
2015,06,28,00,28,23.50
2015,06,28,00,29,23.50
2015,06,28,00,30,23.40
2015,06,28,00,31,23.40
2015,06,28,00,32,23.40
2015,06,28,00,33,23.30
2015,06,28,00,34,23.30
2015,06,28,00,35,23.30
2015,06,28,00,36,23.20
2015,06,28,00,37,23.20
2015,06,28,00,38,23.10
2015,06,28,00,39,23.10
2015,06,28,00,40,23.10
2015,06,28,00,41,23.10
2015,06,28,00,42,23.10
2015,06,28,00,43,23.00
2015,06,28,00,44,23.00
2015,06,28,00,45,23.00
2015,06,28,00,46,23.00
2015,06,28,00,47,22.90
2015,06,28,00,48,22.90
2015,06,28,00,49,22.90
2015,06,28,00,50,22.90
2015,06,28,00,51,22.90
2015,06,28,00,52,22.90
2015,06,28,00,53,22.90
2015,06,28,00,54,22.90
2015,06,28,00,55,22.80
2015,06,28,00,56,22.80
2015,06,28,00,57,22.80
2015,06,28,00,58,22.80
2015,06,28,00,59,22.80
2015,06,28,01,00,22.80
2015,06,28,01,01,22.70
2015,06,28,01,02,22.70
2015,06,28,01,03,22.70
2015,06,28,01,04,22.70
2015,06,28,01,05,22.70
2015,06,28,01,06,22.70
2015,06,28,01,07,22.60
2015,06,28,01,08,22.60
2015,06,28,01,09,22.60
2015,06,28,01,10,22.60
2015,06,28,01,11,22.60
2015,06,28,01,12,22.50
2015,06,28,01,13,22.50
2015,06,28,01,14,22.40
2015,06,28,01,15,22.40
2015,06,28,01,16,22.40
2015,06,28,01,17,22.40
2015,06,28,01,18,22.30
2015,06,28,01,19,22.30
2015,06,28,01,20,22.30
2015,06,28,01,21,22.30
2015,06,28,01,22,22.30
2015,06,28,01,23,22.20
2015,06,28,01,24,22.20
2015,06,28,01,25,22.10
2015,06,28,01,26,22.10
2015,06,28,01,27,22.10
2015,06,28,01,28,22.00
2015,06,28,01,29,22.00
2015,06,28,01,30,21.90
2015,06,28,01,31,21.90
2015,06,28,01,32,21.90
2015,06,28,01,33,21.90
2015,06,28,01,34,21.80
2015,06,28,01,35,21.80
2015,06,28,01,36,21.80
2015,06,28,01,37,21.80
2015,06,28,01,38,21.80
2015,06,28,01,39,21.80
2015,06,28,01,40,21.80
2015,06,28,01,41,21.80
2015,06,28,01,42,21.70
2015,06,28,01,43,21.70
2015,06,28,01,44,21.70
2015,06,28,01,45,21.70
2015,06,28,01,46,21.70
2015,06,28,01,47,21.70
2015,06,28,01,48,21.70
2015,06,28,01,49,21.70
2015,06,28,01,50,21.70
2015,06,28,01,51,21.70
2015,06,28,01,52,21.60
2015,06,28,01,53,21.60
2015,06,28,01,54,21.60
2015,06,28,01,55,21.60
2015,06,28,01,56,21.60
2015,06,28,01,57,21.60
2015,06,28,01,58,21.60
2015,06,28,01,59,21.60
2015,06,28,02,00,21.50
2015,06,28,02,01,21.50
2015,06,28,02,02,21.50
2015,06,28,02,03,21.40
2015,06,28,02,04,21.40
2015,06,28,02,05,21.40
2015,06,28,02,06,21.40
2015,06,28,02,07,21.40
2015,06,28,02,08,21.40
2015,06,28,02,09,21.30
2015,06,28,02,10,21.30
2015,06,28,02,11,21.30
2015,06,28,02,12,21.30
2015,06,28,02,13,21.30
2015,06,28,02,14,21.30
2015,06,28,02,15,21.20
2015,06,28,02,16,21.20
2015,06,28,02,17,21.20
2015,06,28,02,18,21.20
2015,06,28,02,19,21.20
2015,06,28,02,20,21.20
2015,06,28,02,21,21.20
2015,06,28,02,22,21.20
2015,06,28,02,23,21.20
2015,06,28,02,24,21.20
2015,06,28,02,25,21.20
2015,06,28,02,26,21.10
2015,06,28,02,27,21.10
2015,06,28,02,28,21.10
2015,06,28,02,29,21.10
2015,06,28,02,30,21.10
2015,06,28,02,31,21.00
2015,06,28,02,32,21.00
2015,06,28,02,33,21.00
2015,06,28,02,34,20.90
2015,06,28,02,35,20.90
2015,06,28,02,36,20.90
2015,06,28,02,37,20.90
2015,06,28,02,38,20.90
2015,06,28,02,39,20.90
2015,06,28,02,40,20.80
2015,06,28,02,41,20.80
2015,06,28,02,42,20.80
2015,06,28,02,43,20.80
2015,06,28,02,44,20.80
2015,06,28,02,45,20.80
2015,06,28,02,46,20.70
2015,06,28,02,47,20.70
2015,06,28,02,48,20.70
2015,06,28,02,49,20.60
2015,06,28,02,50,20.60
2015,06,28,02,51,20.60
2015,06,28,02,52,20.60
2015,06,28,02,53,20.60
2015,06,28,02,54,20.60
2015,06,28,02,55,20.60
2015,06,28,02,56,20.60
2015,06,28,02,57,20.50
2015,06,28,02,58,20.50
2015,06,28,02,59,20.50
2015,06,28,03,00,20.50
2015,06,28,03,01,20.40
2015,06,28,03,02,20.40
2015,06,28,03,03,20.40
2015,06,28,03,04,20.40
2015,06,28,03,05,20.40
2015,06,28,03,06,20.40
2015,06,28,03,07,20.40
2015,06,28,03,08,20.40
2015,06,28,03,09,20.40
2015,06,28,03,10,20.40
2015,06,28,03,11,20.40
2015,06,28,03,12,20.40
2015,06,28,03,13,20.40
2015,06,28,03,14,20.40
2015,06,28,03,15,20.40
2015,06,28,03,16,20.40
2015,06,28,03,17,20.30
2015,06,28,03,18,20.30
2015,06,28,03,19,20.30
2015,06,28,03,20,20.20
2015,06,28,03,21,20.20
2015,06,28,03,22,20.20
2015,06,28,03,23,20.20
2015,06,28,03,24,20.10
2015,06,28,03,25,20.10
2015,06,28,03,26,20.00
2015,06,28,03,27,20.00
2015,06,28,03,28,19.90
2015,06,28,03,29,19.80
2015,06,28,03,30,19.70
2015,06,28,03,31,19.50
2015,06,28,03,32,19.40
2015,06,28,03,33,19.30
2015,06,28,03,34,19.20
2015,06,28,03,35,19.10
2015,06,28,03,36,19.00
2015,06,28,03,37,18.90
2015,06,28,03,38,18.90
2015,06,28,03,39,18.80
2015,06,28,03,40,18.80
2015,06,28,03,41,18.80
2015,06,28,03,42,18.70
2015,06,28,03,43,18.70
2015,06,28,03,44,18.60
2015,06,28,03,45,18.60
2015,06,28,03,46,18.50
2015,06,28,03,47,18.40
2015,06,28,03,48,18.40
2015,06,28,03,49,18.40
2015,06,28,03,50,18.40
2015,06,28,03,51,18.30
2015,06,28,03,52,18.30
2015,06,28,03,53,18.40
2015,06,28,03,54,18.40
2015,06,28,03,55,18.40
2015,06,28,03,56,18.40
2015,06,28,03,57,18.40
2015,06,28,03,58,18.50
2015,06,28,03,59,18.50
2015,06,28,04,00,18.50
2015,06,28,04,01,18.50
2015,06,28,04,02,18.50
2015,06,28,04,03,18.40
2015,06,28,04,04,18.40
2015,06,28,04,05,18.40
2015,06,28,04,06,18.30
2015,06,28,04,07,18.30
2015,06,28,04,08,18.30
2015,06,28,04,09,18.20
2015,06,28,04,10,18.10
2015,06,28,04,11,18.10
2015,06,28,04,12,18.00
2015,06,28,04,13,18.00
2015,06,28,04,14,17.90
2015,06,28,04,15,17.80
2015,06,28,04,16,17.80
2015,06,28,04,17,17.70
2015,06,28,04,18,17.60
2015,06,28,04,19,17.60
2015,06,28,04,20,17.60
2015,06,28,04,21,17.50
2015,06,28,04,22,17.50
2015,06,28,04,23,17.40
2015,06,28,04,24,17.40
2015,06,28,04,25,17.30
2015,06,28,04,26,17.30
2015,06,28,04,27,17.30
2015,06,28,04,28,17.20
2015,06,28,04,29,17.20
2015,06,28,04,30,17.20
2015,06,28,04,31,17.10
2015,06,28,04,32,17.10
2015,06,28,04,33,17.10
2015,06,28,04,34,17.10
2015,06,28,04,35,17.10
2015,06,28,04,36,17.10
2015,06,28,04,37,17.10
2015,06,28,04,38,17.10
2015,06,28,04,39,17.10
2015,06,28,04,40,17.10
2015,06,28,04,41,17.10
2015,06,28,04,42,17.10
2015,06,28,04,43,17.10
2015,06,28,04,44,17.10
2015,06,28,04,45,17.10
2015,06,28,04,46,17.10
2015,06,28,04,47,17.10
2015,06,28,04,48,17.10
2015,06,28,04,49,17.10
2015,06,28,04,50,17.10
2015,06,28,04,51,17.10
2015,06,28,04,52,17.10
2015,06,28,04,53,17.00
2015,06,28,04,54,17.00
2015,06,28,04,55,17.00
2015,06,28,04,56,17.00
2015,06,28,04,57,16.90
2015,06,28,04,58,16.90
2015,06,28,04,59,16.80
2015,06,28,05,00,16.70
2015,06,28,05,01,16.70
2015,06,28,05,02,16.60
2015,06,28,05,03,16.50
2015,06,28,05,04,16.50
2015,06,28,05,05,16.40
2015,06,28,05,06,16.40
2015,06,28,05,07,16.30
2015,06,28,05,08,16.30
2015,06,28,05,09,16.30
2015,06,28,05,10,16.20
2015,06,28,05,11,16.20
2015,06,28,05,12,16.20
2015,06,28,05,13,16.20
2015,06,28,05,14,16.20
2015,06,28,05,15,16.10
2015,06,28,05,16,16.10
2015,06,28,05,17,16.10
2015,06,28,05,18,16.10
2015,06,28,05,19,16.10
2015,06,28,05,20,16.10
2015,06,28,05,21,16.00
2015,06,28,05,22,16.00
2015,06,28,05,23,16.00
2015,06,28,05,24,16.00
2015,06,28,05,25,16.00
2015,06,28,05,26,15.90
2015,06,28,05,27,15.90
2015,06,28,05,28,15.90
2015,06,28,05,29,15.90
2015,06,28,05,30,15.90
2015,06,28,05,31,15.90
2015,06,28,05,32,15.80
2015,06,28,05,33,15.80
2015,06,28,05,34,15.80
2015,06,28,05,35,15.80
2015,06,28,05,36,15.70
2015,06,28,05,37,15.70
2015,06,28,05,38,15.70
2015,06,28,05,39,15.70
2015,06,28,05,40,15.60
2015,06,28,05,41,15.60
2015,06,28,05,42,15.60
2015,06,28,05,43,15.60
2015,06,28,05,44,15.60
2015,06,28,05,45,15.50
2015,06,28,05,46,15.50
2015,06,28,05,47,15.50
2015,06,28,05,48,15.50
2015,06,28,05,49,15.50
2015,06,28,05,50,15.50
2015,06,28,05,51,15.40
2015,06,28,05,52,15.40
2015,06,28,05,53,15.30
2015,06,28,05,54,15.30
2015,06,28,05,55,15.30
2015,06,28,05,56,15.30
2015,06,28,05,57,15.20
2015,06,28,05,58,15.20
2015,06,28,05,59,15.20
2015,06,28,06,00,15.20
2015,06,28,06,01,15.20
2015,06,28,06,02,15.20
2015,06,28,06,03,15.10
2015,06,28,06,04,15.10
2015,06,28,06,05,15.20
2015,06,28,06,06,15.20
2015,06,28,06,07,15.20
2015,06,28,06,08,15.20
2015,06,28,06,09,15.20
2015,06,28,06,10,15.20
2015,06,28,06,11,15.20
2015,06,28,06,12,15.20
2015,06,28,06,13,15.20
2015,06,28,06,14,15.20
2015,06,28,06,15,15.30
2015,06,28,06,16,15.30
2015,06,28,06,17,15.30
2015,06,28,06,18,15.30
2015,06,28,06,19,15.30
2015,06,28,06,20,15.30
2015,06,28,06,21,15.30
2015,06,28,06,22,15.30
2015,06,28,06,23,15.40
2015,06,28,06,24,15.40
2015,06,28,06,25,15.40
2015,06,28,06,26,15.30
2015,06,28,06,27,15.30
2015,06,28,06,28,15.30
2015,06,28,06,29,15.30
2015,06,28,06,30,15.30
2015,06,28,06,31,15.30
2015,06,28,06,32,15.30
2015,06,28,06,33,15.40
2015,06,28,06,34,15.40
2015,06,28,06,35,15.40
2015,06,28,06,36,15.40
2015,06,28,06,37,15.40
2015,06,28,06,38,15.40
2015,06,28,06,39,15.40
2015,06,28,06,40,15.40
2015,06,28,06,41,15.40
2015,06,28,06,42,15.40
2015,06,28,06,43,15.40
2015,06,28,06,44,15.40
2015,06,28,06,45,15.50
2015,06,28,06,46,15.50
2015,06,28,06,47,15.60
2015,06,28,06,48,15.70
2015,06,28,06,49,15.70
2015,06,28,06,50,15.80
2015,06,28,06,51,16.00
2015,06,28,06,52,16.10
2015,06,28,06,53,16.20
2015,06,28,06,54,16.30
2015,06,28,06,55,16.40
2015,06,28,06,56,16.50
2015,06,28,06,57,16.60
2015,06,28,06,58,16.70
2015,06,28,06,59,16.80
2015,06,28,07,00,16.90
2015,06,28,07,01,17.00
2015,06,28,07,02,17.10
2015,06,28,07,03,17.20
2015,06,28,07,04,17.30
2015,06,28,07,05,17.40
2015,06,28,07,06,17.50
2015,06,28,07,07,17.50
2015,06,28,07,08,17.60
2015,06,28,07,09,17.70
2015,06,28,07,10,17.80
2015,06,28,07,11,17.80
2015,06,28,07,12,17.90
2015,06,28,07,13,17.90
2015,06,28,07,14,18.00
2015,06,28,07,15,18.00
2015,06,28,07,16,18.10
2015,06,28,07,17,18.10
2015,06,28,07,18,18.20
2015,06,28,07,19,18.20
2015,06,28,07,20,18.20
2015,06,28,07,21,18.30
2015,06,28,07,22,18.30
2015,06,28,07,23,18.40
2015,06,28,07,24,18.50
2015,06,28,07,25,18.50
2015,06,28,07,26,18.60
2015,06,28,07,27,18.70
2015,06,28,07,28,18.80
2015,06,28,07,29,18.90
2015,06,28,07,30,19.00
2015,06,28,07,31,19.10
2015,06,28,07,32,19.20
2015,06,28,07,33,19.30
2015,06,28,07,34,19.40
2015,06,28,07,35,19.50
2015,06,28,07,36,19.60
2015,06,28,07,37,19.60
2015,06,28,07,38,19.70
2015,06,28,07,39,19.80
2015,06,28,07,40,19.80
2015,06,28,07,41,19.90
2015,06,28,07,42,19.90
2015,06,28,07,43,20.00
2015,06,28,07,44,20.00
2015,06,28,07,45,20.10
2015,06,28,07,46,20.10
2015,06,28,07,47,20.10
2015,06,28,07,48,20.20
2015,06,28,07,49,20.20
2015,06,28,07,50,20.30
2015,06,28,07,51,20.30
2015,06,28,07,52,20.40
2015,06,28,07,53,20.40
2015,06,28,07,54,20.40
2015,06,28,07,55,20.50
2015,06,28,07,56,20.60
2015,06,28,07,57,20.70
2015,06,28,07,58,20.80
2015,06,28,07,59,20.80
2015,06,28,08,00,20.90
2015,06,28,08,01,20.90
2015,06,28,08,02,21.00
2015,06,28,08,03,21.00
2015,06,28,08,04,21.00
2015,06,28,08,05,21.10
2015,06,28,08,06,21.10
2015,06,28,08,07,21.00
2015,06,28,08,08,21.00
2015,06,28,08,09,21.10
2015,06,28,08,10,21.10
2015,06,28,08,11,21.10
2015,06,28,08,12,21.10
2015,06,28,08,13,21.10
2015,06,28,08,14,21.20
2015,06,28,08,15,21.20
2015,06,28,08,16,21.30
2015,06,28,08,17,21.30
2015,06,28,08,18,21.40
2015,06,28,08,19,21.40
2015,06,28,08,20,21.50
2015,06,28,08,21,21.50
2015,06,28,08,22,21.60
2015,06,28,08,23,21.70
2015,06,28,08,24,21.70
2015,06,28,08,25,21.70
2015,06,28,08,26,21.80
2015,06,28,08,27,21.90
2015,06,28,08,28,21.90
2015,06,28,08,29,22.00
2015,06,28,08,30,22.00
2015,06,28,08,31,22.10
2015,06,28,08,32,22.10
2015,06,28,08,33,22.10
2015,06,28,08,34,22.10
2015,06,28,08,35,22.20
2015,06,28,08,36,22.20
2015,06,28,08,37,22.20
2015,06,28,08,38,22.30
2015,06,28,08,39,22.30
2015,06,28,08,40,22.30
2015,06,28,08,41,22.40
2015,06,28,08,42,22.40
2015,06,28,08,43,22.40
2015,06,28,08,44,22.50
2015,06,28,08,45,22.50
2015,06,28,08,46,22.60
2015,06,28,08,47,22.70
2015,06,28,08,48,22.70
2015,06,28,08,49,22.70
2015,06,28,08,50,22.70
2015,06,28,08,51,22.80
2015,06,28,08,52,22.80
2015,06,28,08,53,22.90
2015,06,28,08,54,23.00
2015,06,28,08,55,23.00
2015,06,28,08,56,23.10
2015,06,28,08,57,23.20
2015,06,28,08,58,23.20
2015,06,28,08,59,23.20
2015,06,28,09,00,23.30
2015,06,28,09,01,23.30
2015,06,28,09,02,23.30
2015,06,28,09,03,23.30
2015,06,28,09,04,23.40
2015,06,28,09,05,23.40
2015,06,28,09,06,23.40
2015,06,28,09,07,23.50
2015,06,28,09,08,23.60
2015,06,28,09,09,23.60
2015,06,28,09,10,23.70
2015,06,28,09,11,23.70
2015,06,28,09,12,23.70
2015,06,28,09,13,23.70
2015,06,28,09,14,23.70
2015,06,28,09,15,23.70
2015,06,28,09,16,23.80
2015,06,28,09,17,23.80
2015,06,28,09,18,23.80
2015,06,28,09,19,23.90
2015,06,28,09,20,23.90
2015,06,28,09,21,24.00
2015,06,28,09,22,24.10
2015,06,28,09,23,24.20
2015,06,28,09,24,24.20
2015,06,28,09,25,24.30
2015,06,28,09,26,24.30
2015,06,28,09,27,24.30
2015,06,28,09,28,24.40
2015,06,28,09,29,24.40
2015,06,28,09,30,24.50
2015,06,28,09,31,24.60
2015,06,28,09,32,24.70
2015,06,28,09,33,24.70
2015,06,28,09,34,24.80
2015,06,28,09,35,24.80
2015,06,28,09,36,24.80
2015,06,28,09,37,24.80
2015,06,28,09,38,24.80
2015,06,28,09,39,24.80
2015,06,28,09,40,24.80
2015,06,28,09,41,24.80
2015,06,28,09,42,24.90
2015,06,28,09,43,25.00
2015,06,28,09,44,25.10
2015,06,28,09,45,25.10
2015,06,28,09,46,25.10
2015,06,28,09,47,25.10
2015,06,28,09,48,25.10
2015,06,28,09,49,25.20
2015,06,28,09,50,25.20
2015,06,28,09,51,25.20
2015,06,28,09,52,25.30
2015,06,28,09,53,25.30
2015,06,28,09,54,25.30
2015,06,28,09,55,25.30
2015,06,28,09,56,25.40
2015,06,28,09,57,25.40
2015,06,28,09,58,25.50
2015,06,28,09,59,25.50
2015,06,28,10,00,25.60
2015,06,28,10,01,25.70
2015,06,28,10,02,25.70
2015,06,28,10,03,25.80
2015,06,28,10,04,25.80
2015,06,28,10,05,25.80
2015,06,28,10,06,25.80
2015,06,28,10,07,25.80
2015,06,28,10,08,25.80
2015,06,28,10,09,25.80
2015,06,28,10,10,25.90
2015,06,28,10,11,25.90
2015,06,28,10,12,26.00
2015,06,28,10,13,26.00
2015,06,28,10,14,26.10
2015,06,28,10,15,26.10
2015,06,28,10,16,26.10
2015,06,28,10,17,26.20
2015,06,28,10,18,26.20
2015,06,28,10,19,26.20
2015,06,28,10,20,26.20
2015,06,28,10,21,26.30
2015,06,28,10,22,26.30
2015,06,28,10,23,26.30
2015,06,28,10,24,26.30
2015,06,28,10,25,26.30
2015,06,28,10,26,26.40
2015,06,28,10,27,26.40
2015,06,28,10,28,26.50
2015,06,28,10,29,26.60
2015,06,28,10,30,26.60
2015,06,28,10,31,26.70
2015,06,28,10,32,26.70
2015,06,28,10,33,26.70
2015,06,28,10,34,26.70
2015,06,28,10,35,26.80
2015,06,28,10,36,26.80
2015,06,28,10,37,26.80
2015,06,28,10,38,26.80
2015,06,28,10,39,26.90
2015,06,28,10,40,26.90
2015,06,28,10,41,26.90
2015,06,28,10,42,26.90
2015,06,28,10,43,27.00
2015,06,28,10,44,27.00
2015,06,28,10,45,27.00
2015,06,28,10,46,27.10
2015,06,28,10,47,27.10
2015,06,28,10,48,27.20
2015,06,28,10,49,27.30
2015,06,28,10,50,27.30
2015,06,28,10,51,27.40
2015,06,28,10,52,27.40
2015,06,28,10,53,27.30
2015,06,28,10,54,27.30
2015,06,28,10,55,27.20
2015,06,28,10,56,27.20
2015,06,28,10,57,27.10
2015,06,28,10,58,27.00
2015,06,28,10,59,27.00
2015,06,28,11,00,26.90
2015,06,28,11,01,26.80
2015,06,28,11,02,26.80
2015,06,28,11,03,26.80
2015,06,28,11,04,26.70
2015,06,28,11,05,26.70
2015,06,28,11,06,26.70
2015,06,28,11,07,26.80
2015,06,28,11,08,26.80
2015,06,28,11,09,26.80
2015,06,28,11,10,26.90
2015,06,28,11,11,26.90
2015,06,28,11,12,27.00
2015,06,28,11,13,27.10
2015,06,28,11,14,27.10
2015,06,28,11,15,27.20
2015,06,28,11,16,27.20
2015,06,28,11,17,27.30
2015,06,28,11,18,27.40
2015,06,28,11,19,27.40
2015,06,28,11,20,27.50
2015,06,28,11,21,27.60
2015,06,28,11,22,27.60
2015,06,28,11,23,27.60
2015,06,28,11,24,27.50
2015,06,28,11,25,27.50
2015,06,28,11,26,27.40
2015,06,28,11,27,27.40
2015,06,28,11,28,27.50
2015,06,28,11,29,27.50
2015,06,28,11,30,27.60
2015,06,28,11,31,27.60
2015,06,28,11,32,27.60
2015,06,28,11,33,27.80
2015,06,28,11,34,27.90
2015,06,28,11,35,27.90
2015,06,28,11,36,27.90
2015,06,28,11,37,28.00
2015,06,28,11,38,28.00
2015,06,28,11,39,28.10
2015,06,28,11,40,28.10
2015,06,28,11,41,28.10
2015,06,28,11,42,28.10
2015,06,28,11,43,28.20
2015,06,28,11,44,28.20
2015,06,28,11,45,28.30
2015,06,28,11,46,28.30
2015,06,28,11,47,28.40
2015,06,28,11,48,28.40
2015,06,28,11,49,28.60
2015,06,28,11,50,28.70
2015,06,28,11,51,28.80
2015,06,28,11,52,28.90
2015,06,28,11,53,29.00
2015,06,28,11,54,29.10
2015,06,28,11,55,29.10
2015,06,28,11,56,29.20
2015,06,28,11,57,29.20
2015,06,28,11,58,29.30
2015,06,28,11,59,29.40
2015,06,28,12,00,29.40
2015,06,28,12,01,29.40
2015,06,28,12,02,29.50
2015,06,28,12,03,29.50
2015,06,28,12,04,29.60
2015,06,28,12,05,29.60
2015,06,28,12,06,29.60
2015,06,28,12,07,29.70
2015,06,28,12,08,29.70
2015,06,28,12,09,29.80
2015,06,28,12,10,29.80
2015,06,28,12,11,29.80
2015,06,28,12,12,29.80
2015,06,28,12,13,29.80
2015,06,28,12,14,29.80
2015,06,28,12,15,29.80
2015,06,28,12,16,29.80
2015,06,28,12,17,29.80
2015,06,28,12,18,29.80
2015,06,28,12,19,29.80
2015,06,28,12,20,29.80
2015,06,28,12,21,29.90
2015,06,28,12,22,29.90
2015,06,28,12,23,29.90
2015,06,28,12,24,30.00
2015,06,28,12,25,30.10
2015,06,28,12,26,30.20
2015,06,28,12,27,30.20
2015,06,28,12,28,30.20
2015,06,28,12,29,30.30
2015,06,28,12,30,30.30
2015,06,28,12,31,30.30
2015,06,28,12,32,30.40
2015,06,28,12,33,30.40
2015,06,28,12,34,30.50
2015,06,28,12,35,30.50
2015,06,28,12,36,30.60
2015,06,28,12,37,30.60
2015,06,28,12,38,30.60
2015,06,28,12,39,30.60
2015,06,28,12,40,30.60
2015,06,28,12,41,30.60
2015,06,28,12,42,30.70
2015,06,28,12,43,30.80
2015,06,28,12,44,30.80
2015,06,28,12,45,30.80
2015,06,28,12,46,30.90
2015,06,28,12,47,30.90
2015,06,28,12,48,30.90
2015,06,28,12,49,31.00
2015,06,28,12,50,31.00
2015,06,28,12,51,31.00
2015,06,28,12,52,30.90
2015,06,28,12,53,30.90
2015,06,28,12,54,30.80
2015,06,28,12,55,30.80
2015,06,28,12,56,30.90
2015,06,28,12,57,31.00
2015,06,28,12,58,31.00
2015,06,28,12,59,31.10
2015,06,28,13,00,31.10
2015,06,28,13,01,31.20
2015,06,28,13,02,31.20
2015,06,28,13,03,31.20
2015,06,28,13,04,31.20
2015,06,28,13,05,31.30
2015,06,28,13,06,31.30
2015,06,28,13,07,31.30
2015,06,28,13,08,31.30
2015,06,28,13,09,31.20
2015,06,28,13,10,31.20
2015,06,28,13,11,31.20
2015,06,28,13,12,31.10
2015,06,28,13,13,31.10
2015,06,28,13,14,31.20
2015,06,28,13,15,31.20
2015,06,28,13,16,31.20
2015,06,28,13,17,31.20
2015,06,28,13,18,31.20
2015,06,28,13,19,31.20
2015,06,28,13,20,31.20
2015,06,28,13,21,31.20
2015,06,28,13,22,31.30
2015,06,28,13,23,31.30
2015,06,28,13,24,31.30
2015,06,28,13,25,31.30
2015,06,28,13,26,31.30
2015,06,28,13,27,31.30
2015,06,28,13,28,31.30
2015,06,28,13,29,31.30
2015,06,28,13,30,31.30
2015,06,28,13,31,31.30
2015,06,28,13,32,31.40
2015,06,28,13,33,31.40
2015,06,28,13,34,31.40
2015,06,28,13,35,31.40
2015,06,28,13,36,31.40
2015,06,28,13,37,31.30
2015,06,28,13,38,31.30
2015,06,28,13,39,31.30
2015,06,28,13,40,31.30
2015,06,28,13,41,31.30
2015,06,28,13,42,31.30
2015,06,28,13,43,31.30
2015,06,28,13,44,31.30
2015,06,28,13,45,31.20
2015,06,28,13,46,31.20
2015,06,28,13,47,31.20
2015,06,28,13,48,31.30
2015,06,28,13,49,31.30
2015,06,28,13,50,31.40
2015,06,28,13,51,31.40
2015,06,28,13,52,31.50
2015,06,28,13,53,31.50
2015,06,28,13,54,31.60
2015,06,28,13,55,31.60
2015,06,28,13,56,31.60
2015,06,28,13,57,31.60
2015,06,28,13,58,31.60
2015,06,28,13,59,31.50
2015,06,28,14,00,31.40
2015,06,28,14,01,31.30
2015,06,28,14,02,31.30
2015,06,28,14,03,31.30
2015,06,28,14,04,31.20
2015,06,28,14,05,31.30
2015,06,28,14,06,31.30
2015,06,28,14,07,31.30
2015,06,28,14,08,31.40
2015,06,28,14,09,31.40
2015,06,28,14,10,31.40
2015,06,28,14,11,31.40
2015,06,28,14,12,31.40
2015,06,28,14,13,31.40
2015,06,28,14,14,31.40
2015,06,28,14,15,31.40
2015,06,28,14,16,31.50
2015,06,28,14,17,31.50
2015,06,28,14,18,31.50
2015,06,28,14,19,31.60
2015,06,28,14,20,31.60
2015,06,28,14,21,31.70
2015,06,28,14,22,31.70
2015,06,28,14,23,31.70
2015,06,28,14,24,31.80
2015,06,28,14,25,31.80
2015,06,28,14,26,31.80
2015,06,28,14,27,31.90
2015,06,28,14,28,31.90
2015,06,28,14,29,31.90
2015,06,28,14,30,31.90
2015,06,28,14,31,31.80
2015,06,28,14,32,31.80
2015,06,28,14,33,31.80
2015,06,28,14,34,31.80
2015,06,28,14,35,31.90
2015,06,28,14,36,31.90
2015,06,28,14,37,31.90
2015,06,28,14,38,32.00
2015,06,28,14,39,32.00
2015,06,28,14,40,32.00
2015,06,28,14,41,31.90
2015,06,28,14,42,31.90
2015,06,28,14,43,31.90
2015,06,28,14,44,31.90
2015,06,28,14,45,31.90
2015,06,28,14,46,31.90
2015,06,28,14,47,31.90
2015,06,28,14,48,31.80
2015,06,28,14,49,31.80
2015,06,28,14,50,31.80
2015,06,28,14,51,31.80
2015,06,28,14,52,31.80
2015,06,28,14,53,31.80
2015,06,28,14,54,31.90
2015,06,28,14,55,32.00
2015,06,28,14,56,32.00
2015,06,28,14,57,32.10
2015,06,28,14,58,32.10
2015,06,28,14,59,32.20
2015,06,28,15,00,32.30
2015,06,28,15,01,32.30
2015,06,28,15,02,32.40
2015,06,28,15,03,32.40
2015,06,28,15,04,32.50
2015,06,28,15,05,32.50
2015,06,28,15,06,32.60
2015,06,28,15,07,32.60
2015,06,28,15,08,32.60
2015,06,28,15,09,32.70
2015,06,28,15,10,32.70
2015,06,28,15,11,32.70
2015,06,28,15,12,32.80
2015,06,28,15,13,32.80
2015,06,28,15,14,32.80
2015,06,28,15,15,32.80
2015,06,28,15,16,32.70
2015,06,28,15,17,32.70
2015,06,28,15,18,32.70
2015,06,28,15,19,32.60
2015,06,28,15,20,32.60
2015,06,28,15,21,32.60
2015,06,28,15,22,32.60
2015,06,28,15,23,32.60
2015,06,28,15,24,32.70
2015,06,28,15,25,32.80
2015,06,28,15,26,32.80
2015,06,28,15,27,32.80
2015,06,28,15,28,32.80
2015,06,28,15,29,32.90
2015,06,28,15,30,32.90
2015,06,28,15,31,32.90
2015,06,28,15,32,32.80
2015,06,28,15,33,32.80
2015,06,28,15,34,32.80
2015,06,28,15,35,32.80
2015,06,28,15,36,32.80
2015,06,28,15,37,32.70
2015,06,28,15,38,32.70
2015,06,28,15,39,32.70
2015,06,28,15,40,32.70
2015,06,28,15,41,32.70
2015,06,28,15,42,32.70
2015,06,28,15,43,32.70
2015,06,28,15,44,32.80
2015,06,28,15,45,32.80
2015,06,28,15,46,32.80
2015,06,28,15,47,32.90
2015,06,28,15,48,33.00
2015,06,28,15,49,33.00
2015,06,28,15,50,33.10
2015,06,28,15,51,33.10
2015,06,28,15,52,33.10
2015,06,28,15,53,33.10
2015,06,28,15,54,33.10
2015,06,28,15,55,33.00
2015,06,28,15,56,33.00
2015,06,28,15,57,32.90
2015,06,28,15,58,32.90
2015,06,28,15,59,32.90
2015,06,28,16,00,33.00
2015,06,28,16,01,33.00
2015,06,28,16,02,33.10
2015,06,28,16,03,33.10
2015,06,28,16,04,33.20
2015,06,28,16,05,33.20
2015,06,28,16,06,33.20
2015,06,28,16,07,33.20
2015,06,28,16,08,33.20
2015,06,28,16,09,33.20
2015,06,28,16,10,33.20
2015,06,28,16,11,33.20
2015,06,28,16,12,33.20
2015,06,28,16,13,33.20
2015,06,28,16,14,33.20
2015,06,28,16,15,33.30
2015,06,28,16,16,33.30
2015,06,28,16,17,33.30
2015,06,28,16,18,33.20
2015,06,28,16,19,33.20
2015,06,28,16,20,33.20
2015,06,28,16,21,33.20
2015,06,28,16,22,33.10
2015,06,28,16,23,33.10
2015,06,28,16,24,33.10
2015,06,28,16,25,33.00
2015,06,28,16,26,33.00
2015,06,28,16,27,32.90
2015,06,28,16,28,32.80
2015,06,28,16,29,32.80
2015,06,28,16,30,32.80
2015,06,28,16,31,32.70
2015,06,28,16,32,32.70
2015,06,28,16,33,32.60
2015,06,28,16,34,32.50
2015,06,28,16,35,32.40
2015,06,28,16,36,32.30
2015,06,28,16,37,32.20
2015,06,28,16,38,32.20
2015,06,28,16,39,32.10
2015,06,28,16,40,32.10
2015,06,28,16,41,32.10
2015,06,28,16,42,32.00
2015,06,28,16,43,32.00
2015,06,28,16,44,31.90
2015,06,28,16,45,31.90
2015,06,28,16,46,31.80
2015,06,28,16,47,31.80
2015,06,28,16,48,31.70
2015,06,28,16,49,31.70
2015,06,28,16,50,31.70
2015,06,28,16,51,31.70
2015,06,28,16,52,31.70
2015,06,28,16,53,31.70
2015,06,28,16,54,31.70
2015,06,28,16,55,31.80
2015,06,28,16,56,31.80
2015,06,28,16,57,31.80
2015,06,28,16,58,31.80
2015,06,28,16,59,31.80
2015,06,28,17,00,31.80
2015,06,28,17,01,31.80
2015,06,28,17,02,31.80
2015,06,28,17,03,31.80
2015,06,28,17,04,31.80
2015,06,28,17,05,31.80
2015,06,28,17,06,31.80
2015,06,28,17,07,31.80
2015,06,28,17,08,31.70
2015,06,28,17,09,31.70
2015,06,28,17,10,31.60
2015,06,28,17,11,31.60
2015,06,28,17,12,31.60
2015,06,28,17,13,31.60
2015,06,28,17,14,31.60
2015,06,28,17,15,31.60
2015,06,28,17,16,31.70
2015,06,28,17,17,31.70
2015,06,28,17,18,31.70
2015,06,28,17,19,31.70